FENGYUN 1C DEB, 30530

Orbit data source: Space-Track

FENGYUN 1C DEB, 30530 is space debris in SSO originally from a launch on Mon, 10 May 1999 UTC launched from the Taiyaun Space Center, China (TSC). Fengyun 1C debris stems from the Chinese weather satellite Fengyun-1C, which was intentionally destroyed by a Chinese anti-satellite missile in 2007. This event dramatically increased the amount of space debris, with thousands of trackable fragments posing hazards to satellites and human spaceflight. The Fengyun 1C debris cloud has become a focal point in discussions about space sustainability and the need for international regulations to prevent the creation of new debris.

Loading next visibility...
Identifier
30530, 1999-025AJU
Orbit
SSO
Country
Flag of CNCN / PRC
Related business
Manufacturer
Unknown
Mission
Spacecraft
Bus & Motor
Unknown
Mass
Unknown
Launch date (UTC)
1999-05-10 (27 years ago)
Launch vehicle
Unknown
Launch site
Taiyaun Space Center, China (TSC)
Object type
Payload
Rocket body
Debris
Shape & HBR
Unknown shape, 0.1 m
Radar Cross Section
Small (<0.1 m²)

Expand to show TLE details & history
Last TLE update: 17 hours ago

TLE from 17 hours ago
0 FENGYUN 1C DEB
1 30530U 99025AJU 26209.08636486  .00000620  00000-0  21119-3 0  9991
2 30530  98.3693 246.5848 0099140 176.5513 239.9819 14.37103734 20511
Epoch: 2026-07-28T02:04Z
TLE epoch observation values (Epoch: 2026-07-28T02:04:21.923Z)
Latitude
54.77628°
Longitude
-102.22953°
Altitude
813.096 km
Speed
7.433 km/s
True Right ascension
15h 38m 29s
True Declination
54° 36' 55"
Sunlit
Object was in daylight at epoch
Visualization orbit readout
Latitude
Unknown
Longitude
Unknown
Altitude
Unknown
Speed
Unknown
Apparent Right ascension
Unknown
Apparent Declination
Unknown
Sunlit
N/A
Visualization observer readout
Local Sidereal Time
08:45:58
Azimuth
Unknown
Elevation
Unknown
Doppler factor
Unknown
Orbital elements
Apogee altitude
836.022 km
Perigee altitude
694.384 km
Semi-major axis
7,143.34 km
Eccentricity
0.00991
Inclination
98.3693°
RAAN
246.5848°
Arg. of periapsis
176.5513°
True anomaly
239.00433°
Mean anomaly
239.9819°
Eccentric anomaly
239.49251°
Mean motion
3.59494 °/min
Orbital period
100.14 mins
BSTAR
0.00021119
Loading maneuver chart data...
Computing Atmospheric mass density...
Loading historical data...
Loading historical data...
Loading historical data...
Loading historical data...
Loading historical data...
Loading historical data...
Loading historical data...

Documentation

Showing up to 5 results
|